HONGYAN 1 (43914 NORAD) Tracking and Keplerian Element Data

This shows tracking and keplerian element data for the satellite.

Feedback or suggestion? Click here.




ElementValue
Catalog43914
NameHONGYAN 1
Epoch Orbit394
Epoch Day27.67114895
Epoch Year2019
RAAN77.4111
Inclination50.0092
Eccentricity0.0006541
Argument of Perigee322.2089
Mean Anonmoly37.8324
Mean Motion13.43708083
Decay Rate-1.29E-06
L11 43914U 18112F 19027.67114895 -.00000129 00000-0 00000+0 0 9996
L22 43914 50.0092 77.4111 0006541 322.2089 37.8324 13.43708083 3942

Live tracking and technical data element details for HONGYAN 1 (NORAD 43914). HONGYAN 1 can be tracked NOW for your location showing map with azimuth and elevation plus other details from your city location.

Track the satellite on the map from your city or location and see movement details for azimuth, elevation, latitude, longitude, range, height, and movement on the map or in text.







IsCatalogInMostPopularTable: catalog: 43914, numindb: 93
Update: records affected: 1



GetName: 43914 HONGYAN 1

Hit Count: updated at: Sun, 26 May 2019 08:53:36 GMT